This demonstration page uses our WeatherBlox Daily Observations layout. Learn more.

Left ArrowRight Arrow

40.97296, -117.73568

Hourly Observations for August 28, 2016

Temp ( °F °C ) Dew Point ( °F °C ) Humidity (%) Winds ( mph kmh ) Pressure ( in mb ) Visibility ( mi km ) Precip ( " mm )
12:56 am 00:56 Clear 52 11.1 24 -4.4 34 34 Calm 29.94 1014 10 16 0.00 0.00
1:56 am 01:56 Clear 56 13.3 26 -3.3 32 32 Calm 29.94 1014 10 16 0.00 0.00
2:56 am 02:56 Clear 50 10 24 -4.4 36 36 ESE 3 6 29.96 1015 10 16 0.00 0.00
3:56 am 03:56 Clear 49 9.4 21 -6.1 33 33 WNW 3 6 29.97 1015 10 16 0.00 0.00
4:56 am 04:56 Clear 48 8.9 26 -3.3 42 42 S 7 11 29.99 1016 10 16 0.00 0.00
5:56 am 05:56 Clear 49 9.4 25 -3.9 39 39 SE 9 15 30.01 1016 10 16 0.00 0.00
6:56 am 06:56 Sunny 51 10.6 27 -2.8 39 39 SSE 6 9 30.04 1017 10 16 0.00 0.00
7:56 am 07:56 Sunny 60 15.6 26 -3.3 27 27 S 5 7 30.06 1018 10 16 0.00 0.00
8:56 am 08:56 Sunny 70 21.1 28 -2.2 21 21 Calm 30.07 1018 10 16 0.00 0.00
9:56 am 09:56 Sunny 77 25 29 -1.7 17 17 VRB 5 7 30.07 1018 10 16 0.00 0.00
10:56 am 10:56 Sunny 83 28.3 30 -1.1 15 15 WNW 7 11 30.06 1018 10 16 0.00 0.00
11:56 am 11:56 Sunny 86 30 31 -0.6 14 14 VRB 7 11 30.04 1017 10 16 0.00 0.00
12:56 pm 12:56 Sunny 87 30.6 30 -1.1 13 13 VRB 3 6 30.04 1017 10 16 0.00 0.00
1:56 pm 13:56 Sunny 90 32.2 29 -1.7 11 11 VRB 6 9 30.01 1016 10 16 0.00 0.00
2:56 pm 14:56 Sunny 91 32.8 25 -3.9 9 9 WSW 9 15 30.00 1016 10 16 0.00 0.00
3:56 pm 15:56 Sunny 91 32.8 24 -4.4 9 9 WSW 9 15 29.98 1015 10 16 0.00 0.00
4:56 pm 16:56 Sunny 91 32.8 22 -5.6 8 8 WNW 6 9 29.98 1015 10 16 0.00 0.00
5:56 pm 17:56 Sunny 90 32.2 21 -6.1 8 8 W 12 19 29.98 1015 10 16 0.00 0.00
6:56 pm 18:56 Sunny 86 30 19 -7.2 8 8 W 7 11 29.98 1015 10 16 0.00 0.00
7:56 pm 19:56 Clear 73 22.8 18 -7.8 12 12 SW 7 11 30.01 1016 10 16 0.00 0.00
8:56 pm 20:56 Clear 72 22.2 20 -6.7 14 14 VRB 3 6 30.01 1016 10 16 0.00 0.00
9:56 pm 21:56 Clear 64 17.8 23 -5 21 21 E 3 6 30.02 1017 10 16 0.00 0.00
10:56 pm 22:56 Clear 55 12.8 20 -6.7 25 25 SE 5 7 30.03 1017 10 16 0.00 0.00
11:56 pm 23:56 Clear 53 11.7 23 -5 31 31 SE 8 13 30.04 1017 10 16 0.00 0.00

Powered by AerisWeather